Weather History for KAEL - January, 2013

Change the Weather History Date:

Friday, January 11, 2013

  Actual Average Record
Temperature  
Mean Temperature 38 °F -  
Max Temperature 42 °F 21 °F 46 °F (2004)
Min Temperature 35 °F 7 °F -16 °F (1997)
Degree Days  
Heating Degree Days 26    
Moisture  
Dew Point 38 °F    
Average Humidity 100    
Maximum Humidity 100    
Minimum Humidity 100    
Precipitation  
Precipitation 0.00 in - - ()
Sea Level Pressure  
Sea Level Pressure 29.52 in    
Wind  
Wind Speed 8 mph (South)    
Max Wind Speed 13 mph    
Max Gust Speed 18 mph    
Visibility 1 miles    
Events Fog , Snow    
Averages and records for this station are not official NWS values.
T = Trace of Precipitation, MM = Missing Value Source: NWS Daily Summary

Daily Weather History Graph

Daily Weather History Graph

Search for Another Location

Airport or City:

Trip Planner

Search our weather history database for the weather conditions in past years. The results will help you decide how hot, cold, wet, or windy it might be!

Date:

Astronomy

Jan. 11, 2013 Rise Set
Actual Time 7:45 AM CST 4:57 PM CST
Civil Twilight 7:13 AM CST 5:29 PM CST
Nautical Twilight 6:37 AM CST 6:05 PM CST
Astronomical Twilight 6:03 AM CST 6:40 PM CST
Moon 7:17 AM CST (1/11) 5:18 PM CST (1/11)
Length of Visible Light 10h 16m
Length of Day
9h 12m
Waning Crescent, 0% of the Moon is Illuminated
Jan 11
Waning Crescent
Jan 11
New
Jan 18
First Quarter
Jan 26
Full
Feb 3
Last Quarter

Hourly Weather History & Observations

Time (CST) Temp. Windchill Dew Point Humidity Pressure Visibility Wind Dir Wind Speed Gust Speed Precip Events Conditions
12:12 AM 35.6 °F 28.0 °F 35.6 °F 100% 29.71 in 1.8 mi SSE 10.4 mph - N/A   Overcast
12:32 AM 35.6 °F 29.2 °F 35.6 °F 100% 29.70 in 1.5 mi South 8.1 mph - N/A   Overcast
12:52 AM 35.6 °F 29.9 °F 35.6 °F 100% 29.69 in 1.2 mi SSE 6.9 mph - N/A   Overcast
1:11 AM 35.6 °F 32.8 °F 35.6 °F 100% 29.68 in 1.5 mi South 3.5 mph - N/A   Overcast
1:32 AM 35.6 °F 29.2 °F 35.6 °F 100% 29.68 in 1.2 mi SSE 8.1 mph - N/A   Overcast
1:52 AM 35.6 °F 28.6 °F 35.6 °F 100% 29.67 in 0.8 mi SSE 9.2 mph - N/A   Overcast
2:11 AM 35.6 °F 28.6 °F 35.6 °F 100% 29.68 in 0.8 mi SSE 9.2 mph - N/A   Overcast
2:32 AM 35.6 °F 31.7 °F 35.6 °F 100% 29.67 in 0.8 mi South 4.6 mph - N/A   Overcast
2:52 AM 35.6 °F 29.2 °F 35.6 °F 100% 29.66 in 1.0 mi SSE 8.1 mph - N/A   Overcast
3:11 AM 35.6 °F 29.9 °F 35.6 °F 100% 29.66 in 0.8 mi SSE 6.9 mph - N/A   Overcast
3:32 AM 35.6 °F 29.9 °F 35.6 °F 100% 29.65 in 0.5 mi SSE 6.9 mph - N/A Fog Fog
3:52 AM 35.6 °F 28.6 °F 35.6 °F 100% 29.63 in 0.2 mi SSE 9.2 mph - N/A Fog Fog
4:11 AM 35.6 °F 29.9 °F 35.6 °F 100% 29.62 in 0.2 mi South 6.9 mph - N/A Fog Fog
4:32 AM 35.6 °F 30.7 °F 35.6 °F 100% 29.61 in 0.2 mi South 5.8 mph - N/A Fog Fog
4:52 AM 35.6 °F 30.7 °F 35.6 °F 100% 29.60 in 0.2 mi SSE 5.8 mph - N/A Fog Fog
5:11 AM 35.6 °F 29.9 °F 35.6 °F 100% 29.59 in 0.2 mi SSE 6.9 mph - N/A Fog Fog
5:32 AM 35.6 °F 30.7 °F 35.6 °F 100% 29.61 in 0.5 mi SSW 5.8 mph - N/A Fog Fog
6:11 AM 35.6 °F 31.7 °F 35.6 °F 100% 29.57 in 0.5 mi South 4.6 mph - N/A   Overcast
6:52 AM 35.6 °F 29.9 °F 35.6 °F 100% 29.58 in - South 6.9 mph - N/A   Overcast
7:11 AM 35.6 °F - 35.6 °F 100% 29.58 in 0.2 mi Calm Calm - N/A Fog Fog
7:32 AM 35.6 °F 30.7 °F 35.6 °F 100% 29.58 in 0.2 mi South 5.8 mph - N/A Snow Light Snow
7:52 AM 35.6 °F 29.9 °F 35.6 °F 100% 29.58 in 0.2 mi South 6.9 mph - N/A Snow Light Snow
8:12 AM 35.6 °F 29.9 °F 35.6 °F 100% 29.58 in 0.2 mi South 6.9 mph - N/A Fog Fog
8:32 AM 35.6 °F 30.7 °F 35.6 °F 100% 29.57 in 0.2 mi South 5.8 mph - N/A Fog Fog
8:51 AM 35.6 °F 30.7 °F 35.6 °F 100% 29.57 in 0.2 mi South 5.8 mph - N/A Fog Fog
9:12 AM 35.6 °F 29.2 °F 35.6 °F 100% 29.57 in 1.0 mi South 8.1 mph - N/A   Overcast
9:32 AM 35.6 °F 28.0 °F 35.6 °F 100% 29.56 in 1.0 mi SSE 10.4 mph - N/A   Overcast
9:51 AM 35.6 °F 28.0 °F 35.6 °F 100% 29.56 in 0.8 mi South 10.4 mph - N/A   Overcast
10:12 AM 35.6 °F 28.0 °F 35.6 °F 100% 29.55 in 0.8 mi SSE 10.4 mph - N/A   Overcast
10:32 AM 35.6 °F 28.0 °F 35.6 °F 100% 29.56 in 0.2 mi South 10.4 mph - N/A Fog Fog
10:51 AM 37.4 °F 29.8 °F 37.4 °F 100% 29.56 in 0.2 mi South 11.5 mph - N/A Fog Fog
11:12 AM 37.4 °F 31.4 °F 37.4 °F 100% 29.55 in 0.2 mi South 8.1 mph - N/A Fog Fog
11:32 AM 37.4 °F 31.4 °F 37.4 °F 100% 29.53 in 0.2 mi South 8.1 mph - N/A Fog Fog
11:51 AM 37.4 °F 30.8 °F 37.4 °F 100% 29.51 in 0.2 mi SSE 9.2 mph - N/A Fog Fog
12:12 PM 37.4 °F 31.4 °F 37.4 °F 100% 29.50 in 0.2 mi South 8.1 mph - N/A Fog Fog
12:32 PM 37.4 °F 31.4 °F 37.4 °F 100% 29.49 in 0.2 mi SSE 8.1 mph - N/A Fog Fog
12:51 PM 37.4 °F 31.4 °F 37.4 °F 100% 29.48 in 0.2 mi SSE 8.1 mph - N/A Fog Fog
1:12 PM 37.4 °F 32.1 °F 37.4 °F 100% 29.46 in 0.2 mi SSE 6.9 mph - N/A Fog Fog
1:32 PM 37.4 °F 31.4 °F 37.4 °F 100% 29.46 in 0.2 mi SSE 8.1 mph - N/A Fog Fog
2:12 PM 39.2 °F 33.0 °F 39.2 °F 100% 29.45 in 0.2 mi SSE 9.2 mph - N/A Fog Fog
2:31 PM 39.2 °F 33.6 °F 39.2 °F 100% 29.46 in 0.2 mi SSE 8.1 mph - N/A Fog Fog
2:52 PM 39.2 °F 33.0 °F 39.2 °F 100% 29.46 in 0.2 mi SSE 9.2 mph - N/A   Overcast
3:12 PM 39.2 °F 34.2 °F 39.2 °F 100% 29.46 in 0.2 mi SSE 6.9 mph - N/A   Overcast
3:31 PM 39.2 °F 34.2 °F 39.2 °F 100% 29.45 in 0.2 mi SSE 6.9 mph - N/A   Overcast
3:52 PM 39.2 °F 33.6 °F 39.2 °F 100% 29.45 in 0.2 mi SSE 8.1 mph - N/A Fog Fog
4:12 PM 39.2 °F 34.2 °F 39.2 °F 100% 29.44 in 0.2 mi SSE 6.9 mph - N/A Fog Fog
4:31 PM 39.2 °F 35.9 °F 39.2 °F 100% 29.44 in 0.2 mi South 4.6 mph - N/A Fog Fog
4:52 PM 39.2 °F 33.0 °F 39.2 °F 100% 29.44 in 0.2 mi SSE 9.2 mph - N/A Fog Fog
5:12 PM 42.8 °F 36.6 °F 42.8 °F 100% 29.44 in 0.8 mi South 11.5 mph - N/A   Overcast
5:31 PM 42.8 °F 36.6 °F 42.8 °F 100% 29.43 in 1.0 mi South 11.5 mph - N/A   Overcast
5:52 PM 42.8 °F 36.6 °F 42.8 °F 100% 29.42 in 0.5 mi South 11.5 mph - N/A Fog Fog
6:12 PM 42.8 °F 36.6 °F 42.8 °F 100% 29.43 in 0.5 mi South 11.5 mph - N/A Fog Fog
6:31 PM 41.0 °F 34.7 °F 41.0 °F 100% 29.42 in 0.2 mi SSE 10.4 mph - N/A Fog Fog
6:52 PM 41.0 °F 34.3 °F 41.0 °F 100% 29.42 in 0.2 mi SSE 11.5 mph - N/A   Overcast
7:12 PM 41.0 °F 34.7 °F 41.0 °F 100% 29.42 in 0.2 mi South 10.4 mph 18.4 mph N/A   Overcast
7:31 PM 41.0 °F 34.3 °F 41.0 °F 100% 29.42 in 0.2 mi SSE 11.5 mph - N/A Fog Fog
7:52 PM 39.2 °F 31.6 °F 39.2 °F 100% 29.41 in 0.2 mi SSE 12.7 mph - N/A Fog Fog
8:12 PM 39.2 °F 32.0 °F 39.2 °F 100% 29.41 in 0.2 mi South 11.5 mph - N/A Fog Fog
8:31 PM 41.0 °F 33.9 °F 41.0 °F 100% 29.41 in 0.8 mi South 12.7 mph 17.3 mph N/A   Overcast
8:52 PM 41.0 °F 34.3 °F 41.0 °F 100% 29.41 in 1.5 mi South 11.5 mph 17.3 mph N/A   Overcast
9:12 PM 41.0 °F 34.3 °F 41.0 °F 100% 29.41 in 2.0 mi South 11.5 mph 17.3 mph N/A   Overcast
9:31 PM 41.0 °F 35.2 °F 41.0 °F 100% 29.41 in 3.0 mi South 9.2 mph - N/A   Overcast
9:52 PM 41.0 °F 35.8 °F 41.0 °F 100% 29.42 in 4.0 mi South 8.1 mph - N/A   Overcast
10:12 PM 41.0 °F 36.4 °F 41.0 °F 100% 29.42 in 4.0 mi South 6.9 mph - N/A   Overcast
10:31 PM 39.2 °F 37.0 °F 39.2 °F 100% 29.42 in 4.0 mi SSW 3.5 mph - N/A   Overcast
10:52 PM 41.0 °F 37.1 °F 41.0 °F 100% 29.42 in 4.0 mi SSW 5.8 mph - N/A   Overcast
11:31 PM 39.2 °F 35.9 °F 39.2 °F 100% 29.42 in 3.0 mi SW 4.6 mph - N/A   Overcast
11:52 PM 39.2 °F 34.2 °F 39.2 °F 100% 29.43 in 2.5 mi SW 6.9 mph - N/A   Overcast